User: anonymous   Login
Location: Unspecified
(0.0000°N, 0.0000°E)
Time: 00:59:40
(UTC+00:00)
Language:

STARLINK-1583 - Orbit

View from above orbital plane
View from above orbital plane
View from above satellite
View from above satellite

Ground track
Ground track

The orbit is defined by the following mean orbital elements,

1 46064U          26145.30764455 +.00000000 +00000-0 -12586-4 0 00002
2 46064  53.1607 117.9812 0001522  89.1359 270.9816 15.30191141    07
Epoch (UTC): 25 May 2026 07:23:00
Eccentricity: 0.0001522
inclination: 53.1607°
perigee height: 474 km
apogee height: 476 km
right ascension of ascending node: 117.9812°
argument of perigee: 89.1359°
revolutions per day: 15.30191141
mean anomaly at epoch: 270.9816°

The dashed part of the orbit path shows where the satellite is in the earth's shadow,  

DLR